Location: Vojnic
(45.3264°N, 15.6972°E)
Time: 14:32:31
(UTC+02:00)

USA 238 DEB - Visible Passes

Search period start: 24 June 2024 00:00
Search period end: 04 July 2024 00:00
Orbit: 912 x 1299 km, 63.4° (Epoch: 29 April)

Date Brightness Start Highest point End Pass type
(mag) Time Alt. Az. Time Alt. Az. Time Alt. Az.
24 Jun 3.6 01:08:11 40° S 01:10:16 60° ESE 01:16:49 10° NE visible
24 Jun 4.8 02:55:46 10° WSW 03:01:33 36° NW 03:07:51 10° NNE visible
25 Jun 4.1 00:24:16 34° SE 00:25:37 38° ESE 00:31:36 10° NE visible
25 Jun 4.2 02:11:40 17° WSW 02:16:20 50° NW 02:22:58 10° NNE visible
25 Jun 5.7 04:04:15 10° WNW 04:09:01 20° NNW 04:14:07 10° NNE visible
25 Jun 4.6 23:40:18 23° ESE 23:41:07 23° ESE 23:46:04 10° ENE visible
26 Jun 3.7 01:27:42 27° SW 01:31:16 72° NW 01:38:03 10° NE visible
26 Jun 5.5 03:18:16 10° WNW 03:23:27 24° NNW 03:29:01 10° NNE visible
26 Jun 5.2 22:56:16 13° ESE 22:56:44 13° ESE 22:59:40 10° ENE visible
27 Jun 3.4 00:43:38 36° SSW 00:46:22 77° SE 00:53:05 10° NE visible
27 Jun 5.1 02:32:25 10° W 02:38:00 31° NNW 02:44:02 10° NNE visible
27 Jun 6.0 04:26:57 10° NW 04:31:21 18° N 04:35:59 10° NE visible
27 Jun 3.7 23:59:31 36° SSE 00:01:38 50° ESE 00:07:59 10° NE visible
28 Jun 4.6 01:46:53 11° WSW 01:52:41 41° NW 01:59:08 10° NNE visible
28 Jun 5.9 03:41:04 10° NW 03:45:39 19° NNW 03:50:30 10° NNE visible
28 Jun 4.3 23:15:17 27° SE 23:17:03 31° ESE 23:22:40 10° NE visible
29 Jun 4.0 01:02:39 17° WSW 01:07:31 58° NW 01:14:14 10° NE visible
29 Jun 5.8 02:55:04 10° WNW 03:00:01 22° NNW 03:05:17 10° NNE visible
29 Jun 4.8 22:30:56 17° SE 22:32:36 19° ESE 22:36:54 10° ENE visible
30 Jun 3.5 00:18:17 22° SW 00:22:32 84° NW 00:29:18 10° NE visible
30 Jun 5.5 02:09:08 10° W 02:14:29 27° NNW 02:20:14 10° NNE visible
30 Jun 6.1 04:03:37 10° NW 04:08:01 17° N 04:12:40 10° NE visible
30 Jun 5.2 21:47:27 10° ESE 21:48:16 10° ESE 21:49:07 10° E visible
30 Jun 3.5 23:33:44 23° SSW 23:37:42 65° ESE 23:44:17 10° NE visible
01 Jul 5.0 01:23:21 10° W 01:29:05 34° NW 01:35:19 10° NNE visible
01 Jul 6.0 03:17:51 10° NW 03:22:18 18° N 03:26:59 10° NE visible
01 Jul 3.9 22:48:56 18° S 22:53:01 41° ESE 22:59:07 10° NE visible
02 Jul 4.5 00:37:49 10° WSW 00:43:50 47° NW 00:50:25 10° NNE visible
02 Jul 6.0 02:31:54 10° WNW 02:36:37 20° NNW 02:41:37 10° NNE visible
02 Jul 6.2 04:25:32 10° NNW 04:30:24 19° NNE 04:35:33 10° ENE visible
02 Jul 4.5 22:03:44 11° SSE 22:08:29 25° ESE 22:13:40 10° ENE visible
02 Jul 3.8 23:52:33 10° SW 23:58:45 68° NW 00:05:31 10° NE visible
03 Jul 5.8 01:45:54 10° WNW 01:51:01 23° NNW 01:56:29 10° NNE visible
03 Jul 6.2 03:40:11 10° NW 03:44:41 18° N 03:49:27 10° NE visible
03 Jul 5.0 21:20:47 10° SE 21:24:06 15° ESE 21:27:31 10° ENE visible
03 Jul 3.4 23:07:38 10° SSW 23:13:49 83° SE 23:20:34 10° NE visible
